Wind_Speed
11 12 13 14 17 19 21 22 23 23 24 25 27 28 30 31 32 33 34 34 35 36 36 37 38 39 39 40 41 42 42 42 42 42 42 42 43 43 43 44 44 44 44 45
12 14 15 15 17 19 21 23 24 25 25 26 27 29 30 30 31 32 33 34 35 37 37 37 38 38 39 39 40 41 42 42 41 41 41 41 41 41 42 42 43 43 43 43
15 15 16 16 17 19 21 23 24 25 26 27 27 28 29 29 30 31 32 33 34 36 37 37 38 38 38 38 39 40 41 41 41 41 41 41 41 41 41 42 42 42 41 41
19 19 18 19 20 20 21 22 24 25 25 26 26 26 27 28 29 30 31 31 32 34 35 35 36 37 37 37 38 39 39 40 40 40 40 41 41 40 40 40 40 41 41 40
21 21 20 20 20 21 22 22 23 24 24 24 25 26 25 27 28 29 29 29 30 31 32 33 34 35 36 36 37 37 38 38 38 39 39 39 39 39 39 39 39 39 39 39
23 23 21 21 21 21 22 22 23 24 24 24 24 24 24 26 27 28 28 28 29 30 31 31 32 33 34 34 35 35 36 37 37 38 37 37 37 37 37 37 37 37 37 37
24 24 22 23 22 22 22 23 24 24 25 24 23 23 24 25 25 27 27 27 27 28 30 30 31 32 33 33 33 34 34 35 36 37 36 36 36 36 36 36 36 36 36 36
25 25 24 25 24 24 24 25 24 25 25 25 24 24 25 26 26 26 26 26 27 27 28 29 29 30 31 32 32 32 33 33 34 35 35 35 36 35 35 35 35 35 35 35
25 26 27 27 26 25 26 26 26 26 26 26 25 25 25 26 26 26 26 26 26 27 27 27 28 28 29 30 31 31 31 32 32 33 33 34 34 34 34 34 34 34 34 34
26 27 28 28 28 27 26 27 26 27 27 26 26 26 26 27 27 27 26 26 26 26 25 25 26 27 28 28 29 30 30 31 31 32 32 33 33 33 33 33 33 33 33 33
27 28 29 30 30 29 27 28 28 28 28 27 27 26 26 26 26 26 26 26 25 25 25 25 25 26 27 27 28 29 29 29 30 31 32 32 32 32 32 32 33 33 33 33
28 29 30 31 31 30 28 28 28 28 27 27 27 26 25 24 25 25 26 26 25 25 25 25 26 26 26 26 27 28 29 29 29 30 31 31 32 32 32 32 32 33 33 33
29 30 31 32 32 31 28 27 28 27 26 25 24 24 23 23 24 24 25 25 25 25 26 26 26 26 26 26 27 27 28 29 29 30 30 31 31 31 31 31 32 32 31 31
30 31 31 32 31 30 28 28 28 26 24 23 23 23 23 23 24 24 24 25 25 25 26 26 26 26 26 26 27 27 28 28 29 29 29 29 30 30 30 30 30 30 30 30
31 32 32 32 31 30 28 28 27 26 24 24 23 23 23 23 23 24 24 25 25 25 25 25 26 26 26 26 27 27 27 28 28 28 28 28 29 29 29 29 29 29 29 30
31 32 32 32 32 30 30 29 27 26 25 24 24 23 23 23 23 23 24 25 25 25 24 24 24 25 26 26 27 27 27 28 28 28 28 28 28 29 29 29 29 29 30 30
31 32 32 33 32 31 30 29 28 27 26 24 23 23 23 22 22 22 23 24 24 24 24 24 24 24 25 25 26 27 27 28 28 28 28 29 29 29 30 30 30 31 31 31
32 33 33 33 33 32 31 29 28 27 25 24 23 23 23 23 23 23 23 23 23 23 24 24 24 24 25 25 25 26 27 28 28 29 29 30 30 30 31 32 32 32 32 32
33 33 33 33 33 32 31 29 27 26 25 24 23 23 23 22 22 22 22 22 22 23 24 24 24 23 24 24 25 25 27 27 28 29 30 30 31 32 32 32 33 33 33 33
33 33 33 33 33 32 30 29 27 26 24 24 23 23 23 23 23 23 22 22 22 23 23 23 24 24 24 25 25 26 27 28 29 30 30 31 31 31 32 32 32 33 33 33
33 33 33 33 32 32 31 30 28 26 25 25 24 24 23 23 23 22 21 21 21 22 23 23 24 24 25 25 26 26 27 28 28 29 29 30 31 31 31 31 31 31 32 33
33 34 33 33 32 32 31 30 29 27 26 26 25 24 24 24 24 23 22 22 22 22 23 23 24 24 25 26 26 26 27 27 28 28 29 29 30 30 30 30 31 31 32 32
34 34 34 33 32 32 32 31 29 28 27 27 26 25 25 24 24 23 23 24 24 24 24 24 25 25 25 26 26 27 27 27 28 28 29 29 29 29 30 30 30 31 32 32
35 35 34 34 33 33 32 32 30 28 27 27 26 26 25 25 25 25 25 24 25 25 25 25 26 26 27 27 27 28 28 28 28 29 29 29 29 30 30 30 31 31 31 31
36 36 35 35 34 33 33 32 30 29 28 27 26 26 25 25 25 26 26 26 26 27 27 27 27 27 27 27 27 28 28 28 29 29 29 29 30 30 31 31 31 32 32 32
36 36 35 34 34 33 32 31 30 29 28 28 27 26 26 26 26 26 27 27 28 28 28 28 28 28 28 28 28 28 28 28 29 29 29 30 31 31 31 32 32 32 32 33
36 36 35 34 33 32 32 31 30 29 29 29 29 28 28 28 28 28 29 29 29 28 28 28 28 28 28 28 28 28 28 28 29 29 30 30 30 31 31 32 33 33 34 35
Wind_Direction
313 297 283 273 270 269 269 268 270 274 273 270 266 262 260 258 256 255 253 251 248 246 246 246 246 247 248 249 249 249 250 252 254 254 256 257 259 260 262 264 266 267 269 270
318 305 295 287 281 276 273 272 274 274 275 273 269 266 264 261 258 256 254 253 251 249 247 247 249 249 249 250 250 250 251 252 253 254 255 256 258 260 261 263 264 266 267 269
324 315 304 295 288 284 282 279 280 280 279 276 272 270 267 264 261 259 255 254 253 252 251 249 249 250 251 251 251 251 252 253 254 255 256 257 259 260 261 262 263 265 267 269
326 320 306 303 293 287 288 288 285 284 282 279 274 272 268 266 263 261 257 255 255 254 253 252 251 252 252 252 252 253 253 253 255 256 257 258 259 260 261 262 263 265 267 269
327 323 315 306 300 296 294 295 292 290 287 283 277 273 267 264 263 261 260 257 256 256 254 253 253 253 253 254 254 253 253 253 254 256 257 258 259 260 262 263 265 266 268 269
328 325 320 314 306 302 299 299 297 294 291 287 281 275 269 265 264 262 261 259 258 257 256 254 254 254 254 255 255 254 253 253 254 255 257 258 259 260 262 263 265 267 269 270
328 327 325 319 310 305 303 301 298 296 294 289 284 276 272 268 266 264 263 262 262 260 258 257 256 255 255 255 254 253 253 254 254 255 256 258 259 261 262 264 265 267 269 270
328 328 326 321 313 305 302 301 298 296 294 290 285 280 274 270 267 264 264 263 263 262 260 259 258 256 255 254 254 254 254 254 255 256 256 258 259 261 262 264 266 267 268 269
327 328 327 324 318 310 304 302 299 296 294 290 286 282 278 273 268 267 264 264 266 265 263 261 259 258 256 254 254 254 255 255 256 257 257 258 260 261 263 264 266 267 269 269
326 326 325 325 320 313 306 304 300 298 295 291 288 284 280 274 270 268 266 266 267 267 265 261 259 258 257 256 255 256 256 256 256 257 258 260 261 263 263 264 265 266 268 269
325 325 324 325 322 316 308 304 303 300 295 292 290 286 282 276 273 271 268 266 267 266 266 264 262 260 260 259 257 257 257 257 257 257 259 260 262 263 264 264 265 266 268 269
322 323 323 324 323 319 313 308 305 303 296 292 290 286 282 279 276 274 272 268 267 265 265 266 265 263 262 260 259 258 259 259 258 259 260 261 261 263 264 265 266 266 268 269
320 322 323 324 323 320 314 311 309 306 300 294 291 287 284 280 278 276 273 270 268 266 266 267 266 264 261 260 260 259 259 259 259 260 262 262 262 263 264 266 267 267 267 268
319 321 323 324 324 320 316 313 311 307 302 298 294 289 285 282 280 278 273 269 268 268 268 268 266 265 262 260 260 259 259 259 260 261 261 261 261 263 265 266 267 267 267 267
318 319 321 323 323 320 317 314 312 307 302 298 296 293 291 287 283 279 275 271 270 270 270 269 267 264 262 261 260 260 259 260 261 262 262 262 262 263 265 267 268 268 268 268
317 318 320 321 322 320 316 313 310 307 303 298 295 295 293 290 286 281 278 275 273 270 270 269 268 265 263 262 262 261 261 262 262 262 262 263 264 264 266 267 268 268 269 269
316 317 319 319 319 318 315 312 310 307 303 298 294 293 292 290 288 283 281 278 275 272 271 271 270 267 265 264 264 263 262 263 263 263 263 265 265 266 267 268 269 269 269 269
315 317 318 319 318 317 316 313 310 307 302 297 293 291 289 288 288 286 282 279 276 274 273 273 271 269 267 266 266 265 264 264 264 264 265 266 266 268 269 269 269 269 269 269
314 316 318 318 318 317 315 314 311 307 302 298 295 293 289 288 288 287 284 280 277 276 275 274 272 272 269 268 267 267 267 267 266 266 266 267 267 268 270 270 269 269 269 269
312 314 316 317 317 317 315 313 311 307 302 298 296 294 292 288 286 286 284 280 277 277 276 275 273 272 272 272 271 271 270 269 268 268 268 269 269 269 270 270 270 270 269 270
310 312 314 315 315 316 314 311 308 304 300 297 294 292 291 290 289 286 283 281 281 279 278 276 275 274 274 274 274 273 273 271 270 270 270 270 270 270 270 271 271 271 271 271
309 310 312 312 313 314 313 311 308 302 298 295 293 291 290 288 288 287 284 281 281 282 282 281 278 276 275 274 274 274 274 274 273 272 272 273 272 271 271 272 272 272 272 273
308 309 310 310 311 312 312 310 307 302 299 296 293 291 289 287 286 285 286 285 283 283 283 283 281 279 277 275 274 274 274 275 275 274 274 274 274 274 274 274 274 274 274 274
306 308 309 308 308 309 309 309 306 302 299 297 294 291 288 286 284 284 285 285 284 284 285 285 284 281 279 278 276 275 276 276 276 275 274 274 274 274 274 274 274 275 275 276
305 306 307 306 306 306 306 306 304 301 298 296 294 291 289 287 285 285 286 286 286 285 285 286 285 283 281 280 279 278 277 276 275 276 276 274 274 275 275 275 275 276 277 277
304 305 305 305 305 304 304 303 302 300 298 296 293 290 289 288 287 286 286 286 286 286 286 286 286 284 282 281 280 279 278 277 276 276 276 276 276 276 276 277 277 277 278 279
304 305 304 304 305 303 302 301 300 299 297 295 292 289 288 287 287 288 287 287 287 286 286 286 287 286 284 283 282 281 280 279 279 278 278 278 277 277 278 278 278 278 279 279
Height
5657 5655 5653 5652 5652 5650 5649 5648 5646 5646 5645 5644 5642 5641 5641 5641 5641 5642 5643 5645 5647 5648 5650 5652 5654 5656 5658 5659 5661 5663 5665 5666 5668 5669 5670 5671 5672 5673 5673 5674 5674 5675 5675 5675
5653 5650 5648 5647 5646 5644 5642 5640 5639 5638 5637 5635 5633 5632 5632 5632 5632 5633 5634 5635 5637 5638 5640 5641 5643 5645 5647 5649 5650 5652 5654 5655 5657 5658 5659 5660 5661 5662 5663 5663 5663 5664 5664 5664
5649 5646 5643 5642 5640 5637 5635 5633 5632 5630 5630 5626 5625 5624 5623 5623 5623 5623 5624 5625 5626 5628 5630 5631 5633 5635 5636 5638 5640 5641 5643 5645 5646 5647 5648 5649 5650 5651 5652 5652 5653 5653 5653 5653
5644 5642 5639 5639 5634 5631 5628 5626 5624 5622 5620 5618 5616 5615 5614 5614 5614 5614 5615 5616 5617 5618 5619 5621 5623 5624 5626 5628 5629 5631 5632 5634 5635 5636 5637 5638 5639 5640 5641 5641 5642 5642 5642 5642
5639 5636 5633 5631 5628 5624 5622 5620 5617 5614 5612 5610 5608 5607 5607 5605 5605 5605 5606 5606 5607 5609 5610 5611 5613 5614 5616 5617 5619 5620 5622 5623 5624 5626 5627 5628 5629 5630 5630 5631 5631 5631 5631 5631
5634 5630 5628 5627 5621 5617 5616 5613 5610 5607 5604 5602 5600 5600 5600 5598 5597 5597 5597 5598 5599 5599 5600 5601 5603 5604 5606 5607 5609 5610 5611 5613 5614 5615 5617 5618 5619 5619 5620 5620 5621 5621 5621 5620
5629 5625 5622 5619 5615 5612 5610 5608 5603 5600 5597 5595 5593 5592 5591 5590 5590 5589 5589 5589 5590 5590 5591 5592 5593 5594 5596 5597 5599 5600 5601 5603 5604 5605 5607 5608 5609 5609 5610 5610 5611 5611 5610 5610
5624 5620 5619 5612 5608 5606 5603 5599 5595 5592 5590 5588 5586 5584 5583 5582 5581 5581 5581 5581 5581 5581 5582 5583 5584 5585 5586 5588 5589 5590 5592 5593 5594 5596 5597 5598 5599 5599 5600 5600 5601 5601 5600 5600
5621 5618 5611 5606 5602 5598 5594 5591 5588 5585 5583 5580 5578 5576 5575 5574 5573 5573 5573 5573 5573 5573 5573 5573 5574 5576 5577 5578 5579 5581 5582 5583 5585 5586 5587 5588 5589 5590 5590 5591 5591 5591 5591 5591
5614 5610 5605 5600 5595 5591 5587 5583 5580 5577 5574 5572 5569 5567 5566 5565 5565 5565 5565 5565 5564 5564 5563 5564 5565 5567 5568 5569 5571 5572 5573 5574 5575 5576 5577 5578 5579 5580 5580 5581 5581 5581 5581 5581
5608 5604 5599 5594 5589 5584 5580 5576 5572 5569 5565 5562 5560 5558 5557 5556 5556 5556 5557 5557 5556 5556 5556 5557 5558 5559 5560 5561 5562 5563 5564 5565 5566 5567 5568 5569 5570 5570 5571 5571 5571 5571 5571 5571
5603 5598 5594 5589 5582 5577 5572 5568 5564 5561 5557 5554 5551 5550 5549 5549 5549 5549 5549 5549 5549 5549 5549 5550 5550 5551 5552 5552 5553 5554 5555 5556 5557 5558 5558 5559 5560 5561 5561 5561 5561 5561 5561 5561
5596 5592 5587 5582 5576 5570 5566 5562 5557 5553 5550 5547 5545 5543 5542 5542 5542 5542 5541 5541 5541 5541 5541 5542 5542 5543 5543 5544 5545 5545 5546 5547 5548 5548 5549 5550 5550 5551 5551 5552 5552 5552 5552 5551
5590 5585 5580 5575 5570 5564 5559 5555 5551 5546 5543 5541 5539 5537 5536 5535 5535 5534 5533 5533 5533 5533 5533 5533 5534 5534 5535 5535 5536 5537 5537 5538 5539 5539 5540 5540 5541 5542 5542 5543 5543 5542 5542 5542
5583 5579 5574 5569 5564 5558 5553 5549 5545 5541 5538 5536 5533 5531 5530 5528 5527 5526 5526 5525 5525 5525 5525 5525 5525 5526 5526 5527 5527 5528 5529 5529 5530 5530 5531 5531 5532 5533 5533 5534 5534 5533 5533 5533
5576 5572 5567 5562 5557 5552 5548 5543 5540 5536 5533 5530 5527 5525 5523 5521 5520 5519 5518 5518 5517 5517 5517 5517 5517 5518 5518 5518 5519 5520 5520 5521 5521 5522 5522 5523 5523 5524 5524 5524 5524 5524 5524 5523
5570 5565 5560 5556 5551 5546 5541 5537 5533 5529 5526 5523 5521 5518 5517 5515 5514 5512 5512 5511 5510 5510 5510 5510 5510 5510 5510 5510 5511 5511 5511 5512 5512 5513 5513 5514 5514 5514 5514 5515 5514 5514 5514 5514
5562 5558 5553 5549 5544 5539 5534 5530 5526 5522 5519 5516 5514 5512 5510 5509 5507 5506 5505 5504 5503 5503 5503 5503 5502 5502 5502 5502 5502 5503 5503 5503 5504 5504 5504 5504 5504 5504 5504 5504 5504 5504 5504 5503
5554 5550 5546 5541 5536 5531 5527 5523 5519 5515 5512 5510 5508 5506 5504 5502 5501 5499 5498 5497 5496 5496 5495 5495 5495 5494 5494 5494 5494 5494 5494 5494 5494 5494 5494 5494 5494 5494 5494 5494 5494 5493 5493 5493
5547 5543 5538 5533 5529 5524 5520 5516 5512 5509 5506 5503 5501 5499 5497 5496 5494 5493 5492 5491 5490 5489 5488 5488 5487 5487 5486 5486 5486 5486 5485 5485 5485 5485 5485 5484 5484 5484 5484 5483 5483 5483 5482 5482
5539 5535 5531 5526 5521 5517 5512 5509 5505 5502 5499 5497 5495 5493 5491 5489 5487 5486 5485 5484 5483 5482 5481 5480 5479 5479 5478 5478 5477 5477 5476 5476 5476 5475 5475 5474 5474 5473 5473 5473 5472 5472 5471 5471
5531 5527 5523 5518 5514 5509 5505 5501 5498 5495 5492 5489 5487 5485 5484 5482 5480 5479 5478 5477 5476 5475 5474 5473 5472 5471 5470 5469 5469 5468 5467 5467 5466 5466 5465 5465 5464 5463 5463 5462 5462 5461 5461 5460
5522 5518 5514 5510 5506 5502 5498 5494 5490 5487 5484 5482 5480 5478 5476 5475 5473 5472 5471 5470 5468 5467 5466 5465 5463 5462 5461 5460 5460 5459 5458 5457 5457 5456 5456 5455 5454 5454 5453 5452 5451 5451 5450 5449
5513 5509 5505 5501 5497 5493 5490 5486 5482 5479 5476 5474 5472 5470 5468 5467 5465 5464 5463 5461 5460 5459 5457 5456 5455 5453 5452 5451 5450 5449 5448 5448 5447 5446 5445 5445 5444 5443 5442 5442 5441 5440 5439 5438
5504 5500 5496 5492 5488 5485 5481 5477 5474 5471 5468 5466 5464 5461 5460 5458 5457 5455 5454 5453 5451 5450 5448 5447 5445 5444 5443 5441 5440 5439 5438 5437 5437 5436 5435 5434 5434 5433 5432 5431 5430 5429 5428 5427
5495 5491 5487 5483 5479 5476 5472 5469 5466 5463 5460 5458 5455 5453 5451 5449 5448 5446 5445 5444 5442 5441 5439 5437 5436 5434 5433 5432 5430 5429 5428 5427 5426 5425 5424 5423 5423 5422 5421 5420 5419 5418 5417 5415
5485 5481 5477 5474 5470 5467 5463 5460 5457 5455 5452 5449 5447 5444 5442 5440 5439 5437 5436 5434 5433 5431 5430 5428 5426 5425 5423 5422 5420 5419 5418 5417 5416 5415 5414 5413 5412 5411 5410 5409 5407 5406 5405 5403